Portada
METAR-TAF:

METAR-TAF

Aeroports :

Ube, Japó

latitud: 33-57N, longitud: 131-15E, altitud: 5 m

Observació

L'informe es va fer fa 1 hora i 6 minuts, a les 22:00 UTC
Vent 5 kt del Nord, variant entre Oest i Nord/Nord-Est
Temperatura 13°C
Humitat 67%
Pressió 1018 hPa
Visibilitat 10 km o més
Escasses núvols a una alçada de 2500 ft
Cel ennuvolat a una alçada de 4500 ft

METAR: RJDC 132200Z 35005KT 270V030 9999 FEW025 BKN045 13/07 Q1018

Hora: 08:06 (23:06 UTC)


TAF: manca

Observacions i pronòstics meteorològics de més de 4000 aeroports (METAR i TAF).

Les estacions disponibles són els punts grocs i vermells al mapa.

Posi el ratolí al punt desitjat per veure el nom de l'estació.

Feu clic per veure les observacions i els pronòstics meteorològics.

Per canviar el mapa: feu clic els botons verds amb una creu de color negre per apropar; al botó verd amb un guió per allunyar la imatge; o en les fletxes verdes per a mapes adjacents.


METAR-TAF: